STARLINK-2289

Last updated on Sat Apr 24 2021 00:02:02 GMT+0000 (Coordinated Universal Time)

1 47983U 21024G 21113.25001157 .00079057 00000-0 56315-3 0 9990 2 47983 53.0493 55.7100 0001334 79.7584 68.0050 15.73165169 1820

Satellite not in orbit